| time (UTC) | temp C | wind direction | speed KPH | gust KPH | rain 1hr cm | rain 24hr cm | rain mn cm | humidity % | barometer mb |
| 20260905224510 | 29 | 15 | 0.0 | 0.0 | 0.00 | 2.54 | 2.54 | 84 | 1011.3 |
| 20260905223009 | 30 | 15 | 0.0 | 0.0 | 0.00 | 2.54 | 2.54 | 83 | 1010.9 |
| 20260905221508 | 30 | 15 | 0.0 | 0.0 | 0.00 | 2.54 | 2.54 | 82 | 1011.1 |
| 20260905220007 | 30 | 15 | 0.0 | 0.0 | 0.00 | 2.54 | 2.54 | 80 | 1011.1 |
| 20260905214507 | 31 | 15 | 0.0 | 0.0 | 0.00 | 2.54 | 2.54 | 79 | 1011.1 |
| 20260905213004 | 31 | 15 | 0.0 | 0.0 | 0.00 | 2.54 | 2.54 | 78 | 1011.2 |
| 20260905211504 | 31 | 15 | 0.0 | 0.0 | 0.00 | 2.54 | 2.54 | 77 | 1011.2 |
| 20260905210003 | 31 | 15 | 0.0 | 0.0 | 0.00 | 2.54 | 2.54 | 72 | 1011.3 |
| 20260905204502 | 31 | 15 | 0.0 | 1.6 | 0.00 | 2.54 | 2.54 | 71 | 1011.5 |
| 20260905203102 | 32 | 15 | 0.0 | 1.6 | 0.00 | 2.54 | 2.54 | 77 | 1011.7 |
| 20260905201558 | 31 | 146 | 0.0 | 1.6 | 0.00 | 2.54 | 2.54 | 69 | 1011.8 |
| 20260905200058 | 32 | 146 | 0.0 | 1.6 | 0.00 | 2.54 | 2.54 | 72 | 1012.0 |
| 20260905194552 | 31 | 147 | 0.0 | 0.0 | 0.00 | 2.54 | 2.54 | 65 | 1012.2 |
| 20260905193050 | 31 | 136 | 0.0 | 3.2 | 0.00 | 2.54 | 2.54 | 72 | 1012.4 |
| 20260905191549 | 31 | 187 | 0.0 | 1.6 | 0.00 | 2.54 | 2.54 | 64 | 1012.7 |
| 20260905190054 | 31 | 130 | 0.0 | 1.6 | 0.00 | 2.54 | 2.54 | 65 | 1012.8 |
| 20260905184556 | 31 | 105 | 0.0 | 6.4 | 0.00 | 2.54 | 2.54 | 67 | 1013.0 |
| 20260905183048 | 31 | 276 | 0.0 | 3.2 | 0.00 | 2.54 | 2.54 | 71 | 1013.1 |
| 20260905181544 | 31 | 229 | 0.0 | 1.6 | 0.00 | 2.54 | 2.54 | 64 | 1013.4 |
| 20260905180041 | 31 | 121 | 0.0 | 1.6 | 0.00 | 2.54 | 2.54 | 67 | 1013.6 |
| 20260905174539 | 30 | 229 | 0.0 | 1.6 | 0.00 | 2.54 | 2.54 | 71 | 1013.6 |
| 20260905173037 | 30 | 213 | 0.0 | 1.6 | 0.00 | 2.54 | 2.54 | 67 | 1013.8 |
| 20260905171538 | 30 | 248 | 0.0 | 1.6 | 0.00 | 2.54 | 2.54 | 69 | 1013.9 |
| 20260905170040 | 30 | 236 | 0.0 | 4.8 | 0.00 | 2.54 | 2.54 | 69 | 1014.1 |
| 20260905164537 | 30 | 108 | 0.0 | 1.6 | 0.00 | 2.54 | 2.54 | 72 | 1014.5 |
| 20260905163030 | 29 | 109 | 0.0 | 1.6 | 0.00 | 2.54 | 2.54 | 68 | 1014.8 |
| 20260905161527 | 28 | 129 | 0.0 | 6.4 | 0.00 | 2.54 | 2.54 | 75 | 1014.5 |
| 20260905160024 | 28 | 138 | 0.0 | 3.2 | 0.00 | 2.54 | 2.54 | 79 | 1014.6 |
| 20260905154520 | 27 | 243 | 0.0 | 1.6 | 0.00 | 2.54 | 2.54 | 78 | 1014.6 |
| 20260905153016 | 26 | 246 | 0.0 | 3.2 | 0.00 | 2.54 | 2.54 | 85 | 1014.5 |
| 20260905151513 | 25 | 166 | 0.0 | 4.8 | 0.00 | 2.54 | 2.54 | 85 | 1014.7 |
| 20260905150011 | 25 | 126 | 0.0 | 3.2 | 0.00 | 2.54 | 2.54 | 87 | 1014.6 |
| 20260905144511 | 23 | 219 | 0.0 | 4.8 | 0.00 | 2.54 | 2.54 | 88 | 1014.9 |
| 20260905143018 | 23 | 249 | 0.0 | 3.2 | 0.00 | 2.54 | 2.54 | 90 | 1015.0 |
| 20260905141505 | 22 | 162 | 0.0 | 4.8 | 0.00 | 2.54 | 2.54 | 91 | 1015.5 |
| 20260905140005 | 22 | 233 | 0.0 | 3.2 | 0.00 | 2.54 | 2.54 | 91 | 1015.4 |
| 20260905134509 | 21 | 262 | 0.0 | 1.6 | 0.00 | 2.54 | 2.54 | 92 | 1015.4 |
| 20260905133002 | 22 | 278 | 0.0 | 1.6 | 0.00 | 2.54 | 2.54 | 92 | 1015.7 |
| 20260905131501 | 22 | 282 | 0.0 | 0.0 | 0.00 | 2.54 | 2.54 | 92 | 1015.9 |
| 20260905130001 | 21 | 209 | 0.0 | 1.6 | 0.03 | 2.54 | 2.54 | 92 | 1016.2 |
| 20260905124559 | 21 | 270 | 0.0 | 3.2 | 0.53 | 2.54 | 2.54 | 92 | 1015.8 |
| 20260905123058 | 22 | 278 | 0.0 | 3.2 | 0.84 | 2.54 | 2.54 | 92 | 1015.7 |
| 20260905121555 | 22 | 212 | 0.0 | 4.8 | 0.84 | 2.54 | 2.54 | 92 | 1015.6 |
| 20260905120105 | 22 | 121 | 0.0 | 1.6 | 0.81 | 2.51 | 2.51 | 92 | 1014.1 |
| 20260905114552 | 22 | 298 | 0.0 | 3.2 | 0.25 | 1.96 | 1.96 | 92 | 1014.7 |
| 20260905113051 | 22 | 154 | 0.0 | 1.6 | 0.00 | 1.70 | 1.70 | 92 | 1014.7 |
| 20260905111607 | 22 | 224 | 0.0 | 0.0 | 0.00 | 1.70 | 1.70 | 92 | 1014.5 |
| 20260905110055 | 22 | 260 | 0.0 | 0.0 | 0.00 | 1.70 | 1.70 | 92 | 1014.5 |
| 20260905104549 | 22 | 260 | 0.0 | 1.6 | 0.00 | 1.70 | 1.70 | 92 | 1014.1 |
| 20260905103048 | 22 | 221 | 0.0 | 1.6 | 0.03 | 1.70 | 1.70 | 92 | 1013.9 |
| 20260905101549 | 22 | 215 | 0.0 | 0.0 | 1.32 | 1.70 | 1.70 | 92 | 1013.5 |
| 20260905100047 | 22 | 215 | 0.0 | 0.0 | 1.70 | 1.70 | 1.70 | 91 | 1013.2 |
| 20260905094546 | 22 | 214 | 0.0 | 0.0 | 1.70 | 1.70 | 1.70 | 91 | 1013.1 |
| 20260905093044 | 22 | 127 | 0.0 | 9.7 | 1.68 | 1.68 | 1.68 | 91 | 1013.4 |
| 20260905091540 | 23 | 8 | 3.2 | 9.7 | 0.30 | 0.30 | 0.30 | 91 | 1014.5 |
| 20260905090039 | 23 | 45 | 0.0 | 0.0 | 0.00 | 0.00 | 0.00 | 91 | 1013.0 |
| 20260905084538 | 23 | 45 | 0.0 | 0.0 | 0.00 | 0.00 | 0.00 | 91 | 1013.3 |
| 20260905083037 | 23 | 47 | 0.0 | 1.6 | 0.00 | 0.00 | 0.00 | 91 | 1012.8 |
| 20260905081538 | 23 | 311 | 0.0 | 0.0 | 0.00 | 0.00 | 0.00 | 91 | 1013.0 |
| 20260905080040 | 23 | 310 | 0.0 | 0.0 | 0.00 | 0.00 | 0.00 | 91 | 1012.6 |
| 20260905074540 | 23 | 310 | 0.0 | 0.0 | 0.00 | 0.00 | 0.00 | 91 | 1012.9 |
| 20260905073046 | 23 | 310 | 0.0 | 0.0 | 0.00 | 0.00 | 0.00 | 91 | 1013.1 |
| 20260905071540 | 23 | 311 | 0.0 | 0.0 | 0.00 | 0.00 | 0.00 | 91 | 1013.2 |
| 20260905070030 | 23 | 311 | 0.0 | 0.0 | 0.00 | 0.00 | 0.00 | 91 | 1013.4 |
| 20260905064529 | 23 | 310 | 0.0 | 0.0 | 0.00 | 0.00 | 0.00 | 91 | 1013.4 |
| 20260905063027 | 23 | 311 | 0.0 | 0.0 | 0.00 | 0.00 | 0.00 | 91 | 1013.7 |
| 20260905061529 | 24 | 311 | 0.0 | 0.0 | 0.00 | 0.00 | 0.00 | 91 | 1013.9 |
| 20260905060025 | 24 | 311 | 0.0 | 0.0 | 0.00 | 0.00 | 0.00 | 91 | 1014.0 |
| 20260905054538 | 24 | 311 | 0.0 | 0.0 | 0.00 | 0.00 | 0.00 | 91 | 1014.0 |
| 20260905053019 | 24 | 311 | 0.0 | 0.0 | 0.00 | 0.00 | 0.00 | 91 | 1014.0 |
| 20260905051520 | 24 | 311 | 0.0 | 0.0 | 0.00 | 0.00 | 0.00 | 91 | 1014.1 |
| 20260905050018 | 25 | 311 | 0.0 | 0.0 | 0.00 | 0.00 | 0.00 | 91 | 1014.0 |
| 20260905044518 | 25 | 311 | 0.0 | 0.0 | 0.00 | 0.00 | 0.00 | 91 | 1014.3 |
| 20260905043018 | 25 | 311 | 0.0 | 0.0 | 0.00 | 0.00 | 0.00 | 91 | 1014.3 |
| 20260905041513 | 25 | 311 | 0.0 | 0.0 | 0.00 | 0.00 | 0.00 | 91 | 1014.4 |
| 20260905040015 | 25 | 311 | 0.0 | 0.0 | 0.00 | 0.00 | 0.00 | 91 | 1014.3 |
| 20260905034510 | 25 | 311 | 0.0 | 0.0 | 0.00 | 0.00 | 0.00 | 91 | 1014.3 |
| 20260905033009 | 25 | 311 | 0.0 | 0.0 | 0.00 | 0.00 | 0.00 | 91 | 1014.3 |
| 20260905031509 | 25 | 311 | 0.0 | 0.0 | 0.00 | 0.00 | 0.00 | 91 | 1014.4 |
| 20260905030009 | 25 | 311 | 0.0 | 0.0 | 0.00 | 0.00 | 0.00 | 90 | 1014.4 |
| 20260905024512 | 25 | 311 | 0.0 | 0.0 | 0.00 | 0.00 | 0.00 | 90 | 1014.4 |
| 20260905023016 | 26 | 311 | 0.0 | 0.0 | 0.00 | 0.00 | 0.00 | 90 | 1014.2 |
| 20260905021507 | 26 | 311 | 0.0 | 0.0 | 0.00 | 0.00 | 0.00 | 90 | 1014.2 |
| 20260905020007 | 26 | 311 | 0.0 | 0.0 | 0.00 | 0.00 | 0.00 | 90 | 1014.2 |
| 20260905014507 | 26 | 311 | 0.0 | 0.0 | 0.00 | 0.00 | 0.00 | 90 | 1014.1 |
| 20260905013006 | 26 | 311 | 0.0 | 0.0 | 0.00 | 0.00 | 0.00 | 90 | 1013.9 |
| 20260905011505 | 26 | 311 | 0.0 | 0.0 | 0.00 | 0.00 | 0.00 | 89 | 1013.7 |
| 20260905010005 | 27 | 311 | 0.0 | 0.0 | 0.00 | 0.00 | 0.00 | 89 | 1013.6 |
| 20260905004507 | 27 | 311 | 0.0 | 0.0 | 0.00 | 0.00 | 0.00 | 88 | 1013.3 |
| 20260905003004 | 27 | 311 | 0.0 | 0.0 | 0.00 | 0.00 | 0.00 | 88 | 1013.3 |
| 20260905001503 | 28 | 311 | 0.0 | 0.0 | 0.00 | 0.00 | 0.00 | 87 | 1013.1 |
| 20260905000004 | 28 | 311 | 0.0 | 0.0 | 0.00 | 0.00 | 0.00 | 87 | 1013.1 |
| 20260904234505 | 29 | 311 | 0.0 | 0.0 | 0.00 | 0.00 | 0.00 | 85 | 1013.0 |
| 20260904233002 | 30 | 311 | 0.0 | 0.0 | 0.00 | 0.00 | 0.00 | 84 | 1013.1 |
| 20260904231500 | 30 | 311 | 0.0 | 0.0 | 0.00 | 0.00 | 0.00 | 83 | 1013.2 |